Tracking 19145 objects as of 25-Apr-2018
HD Live streaming from Space Station
objects crossing your sky now

COSMOS 2216

Track COSMOS 2216 now!
10-day predictions
COSMOS 2216 is classified as:


NORAD ID: 22187
Int'l Code: 1992-068F
Perigee: 1,415.1 km
Apogee: 1,424.4 km
Inclination: 82.6 °
Period: 114.1 minutes
Semi major axis: 7790 km
RCS: 1.0724 m2 (large)
Launch date: October 20, 1992
Source: Commonwealth of Independent States (former USSR) (CIS)
Launch site: PLESETSK MISSILE AND SPACE COMPLEX (PKMTR)
aabbcc
Your satellite tracking list
Your tracking list is empty




NASA's NSSDC Master Catalog

Two Line Element Set (TLE):
1 22187U 92068F   18114.92218807 +.00000027 +00000-0 +89878-4 0  9990
2 22187 082.5949 078.6102 0005930 051.8042 308.3582 12.62505650175442
Source of the keplerian elements: AFSPC